Language: 


Des rapports , des résumés tant et plus, au choix de chacun....


Données statistiques de la station
Quotidien Rapport Janvier 18, 2018 Unités:  Anglais    Métrique   les deux
« Précédent Jour
Suivant Jour »
Quotidien Hebdomadaire Mensuel Annuel Actuel
  Haut: Bas: Moyen:
Température: TemperatureC °F 0.0 °F 7.9 °F
Pt de rosée: DewpointC °F 1.0 °F 4.7 °F
Humidité: Humidity % 0 % 79 %
Vitesse du vent: WindSpeedKMH mph 0.0 mph 20.3 mph
Rafales: WindSpeedGustKMH mph - -
Vent:- - WSW
Pression: PressurehPa in 0.0 in -
Précipitation: 0.0 in    
Historical Graphs
 
 
Données statistiques pour Janvier 18, 2018
Heure Température Point de rosée Pression Vent Vitesse du vent Refales Humidité Pluie (taux horaire)
TemperatureC °F DewpointC °F PressurehPa in Calm     Humidity % HourlyPrecipMM in
00:04 6.2 °F 3.0 °F 1007.0 in WSW 13.7 mph 23.0 mph 81 % 0.0 in
00:09 6.2 °F 3.0 °F 1007.0 in SSW 17.7 mph 17.7 mph 81 % 0.0 in
00:14 6.3 °F 3.0 °F 1007.0 in SSW 17.2 mph 17.7 mph 81 % 0.0 in
00:19 6.3 °F 4.0 °F 1007.0 in SW 15.8 mph 19.1 mph 82 % 0.0 in
00:24 6.3 °F 4.0 °F 1007.0 in WSW 16.3 mph 24.8 mph 82 % 0.0 in
00:29 6.3 °F 4.0 °F 1006.0 in WSW 14.0 mph 24.8 mph 82 % 0.0 in
00:34 6.3 °F 4.0 °F 1006.0 in WSW 14.0 mph 24.8 mph 82 % 0.0 in
00:39 6.3 °F 4.0 °F 1006.0 in SW 15.8 mph 17.2 mph 82 % 0.0 in
00:44 6.3 °F 4.0 °F 1005.0 in SSW 12.2 mph 17.2 mph 82 % 0.0 in
00:49 6.3 °F 4.0 °F 1005.0 in SSW 13.7 mph 16.6 mph 82 % 0.3 in
00:54 6.3 °F 4.0 °F 1005.0 in SSW 10.5 mph 16.3 mph 82 % 0.3 in
00:59 6.3 °F 4.0 °F 1003.9 in WSW 11.6 mph 16.6 mph 82 % 0.3 in
01:04 6.3 °F 4.0 °F 1003.9 in SSW 11.6 mph 16.6 mph 82 % 0.5 in
01:09 6.3 °F 4.0 °F 1003.9 in SSW 9.3 mph 16.3 mph 82 % 0.5 in
01:14 6.3 °F 4.0 °F 1005.0 in SSW 12.2 mph 16.6 mph 82 % 0.5 in
01:19 6.3 °F 4.0 °F 1005.0 in SSW 6.4 mph 17.7 mph 82 % 0.5 in
01:24 6.3 °F 4.0 °F 1005.0 in SW 13.7 mph 19.1 mph 82 % 0.5 in
01:29 6.3 °F 4.0 °F 1002.9 in SW 9.7 mph 19.1 mph 82 % 0.5 in
01:35 6.3 °F 4.0 °F 1002.9 in SSW 16.3 mph 19.5 mph 82 % 0.5 in
01:40 6.3 °F 4.0 °F 1002.9 in SW 17.2 mph 23.3 mph 82 % 0.5 in
01:45 5.6 °F 6.0 °F 1002.9 in South 19.5 mph 27.7 mph 98 % 0.3 in
01:50 5.6 °F 6.0 °F 1002.9 in SSW 15.8 mph 27.7 mph 98 % 0.5 in
01:55 5.6 °F 6.0 °F 1002.9 in SSW 19.5 mph 26.2 mph 98 % 0.5 in
02:00 5.7 °F 6.0 °F 1001.9 in SW 23.8 mph 30.6 mph 98 % 0.5 in
02:05 5.7 °F 6.0 °F 1001.9 in SSW 21.2 mph 30.6 mph 98 % 0.5 in
02:10 5.7 °F 6.0 °F 1001.9 in SSW 19.5 mph 33.5 mph 98 % 0.8 in
02:15 5.7 °F 6.0 °F 999.9 in SSW 25.3 mph 33.5 mph 98 % 1.3 in
02:20 5.7 °F 6.0 °F 999.9 in SSW 24.5 mph 28.5 mph 98 % 1.3 in
02:25 5.7 °F 6.0 °F 999.9 in WSW 20.6 mph 31.4 mph 98 % 1.5 in
02:30 5.7 °F 6.0 °F 1000.9 in SSW 17.7 mph 31.4 mph 98 % 1.8 in
02:35 5.7 °F 6.0 °F 1000.9 in WSW 17.2 mph 31.7 mph 98 % 2.3 in
02:40 5.7 °F 6.0 °F 1000.9 in SSW 26.7 mph 32.3 mph 98 % 2.3 in
02:45 5.7 °F 6.0 °F 998.9 in SW 17.2 mph 32.3 mph 98 % 2.3 in
02:50 5.8 °F 6.0 °F 998.9 in SW 25.3 mph 27.7 mph 98 % 2.3 in
02:55 5.8 °F 6.0 °F 998.9 in SSW 17.2 mph 27.7 mph 98 % 2.3 in
03:00 5.8 °F 6.0 °F 998.9 in SSW 24.5 mph 27.7 mph 98 % 1.8 in
03:05 5.8 °F 6.0 °F 998.9 in SSW 28.8 mph 31.4 mph 98 % 1.8 in
03:10 5.8 °F 6.0 °F 998.9 in WSW 17.7 mph 31.4 mph 98 % 1.5 in
03:15 5.9 °F 6.0 °F 997.9 in SSW 12.6 mph 26.7 mph 98 % 1.3 in
03:20 5.8 °F 6.0 °F 997.9 in SW 20.9 mph 24.5 mph 98 % 0.8 in
03:25 6.0 °F 6.0 °F 997.9 in SW 23.3 mph 28.5 mph 98 % 0.5 in
03:30 6.0 °F 6.0 °F 996.8 in SSW 21.6 mph 28.8 mph 98 % 0.5 in
03:35 6.1 °F 6.0 °F 996.8 in WSW 19.8 mph 28.8 mph 98 % 0.3 in
03:40 6.1 °F 6.0 °F 996.8 in South 12.6 mph 28.5 mph 98 % 0.3 in
03:45 6.3 °F 6.0 °F 996.8 in SW 16.3 mph 31.4 mph 98 % 0.3 in
03:50 6.3 °F 6.0 °F 996.8 in SW 28.0 mph 31.4 mph 98 % 0.0 in
03:55 6.5 °F 7.0 °F 996.8 in SW 20.1 mph 32.0 mph 98 % 0.0 in
04:00 6.5 °F 7.0 °F 996.8 in SW 21.2 mph 32.0 mph 98 % 0.0 in
04:05 6.7 °F 7.0 °F 996.8 in SSW 21.2 mph 37.0 mph 98 % 0.0 in
04:10 6.8 °F 7.0 °F 996.8 in WSW 20.9 mph 37.0 mph 98 % 0.0 in
04:15 7.0 °F 7.0 °F 996.2 in WSW 28.5 mph 30.2 mph 98 % 0.0 in
04:21 7.1 °F 7.0 °F 996.2 in WSW 24.5 mph 32.0 mph 98 % 0.0 in
04:26 7.2 °F 7.0 °F 996.2 in WSW 20.1 mph 32.0 mph 98 % 0.0 in
04:31 7.4 °F 7.0 °F 996.2 in WSW 24.5 mph 37.8 mph 98 % 0.0 in
04:36 7.5 °F 8.0 °F 996.2 in WSW 25.6 mph 37.8 mph 98 % 0.0 in
04:41 7.9 °F 8.0 °F 995.1 in SW 28.0 mph 38.1 mph 98 % 0.3 in
04:46 8.0 °F 8.0 °F 995.1 in WSW 36.4 mph 43.6 mph 98 % 0.3 in
04:51 8.2 °F 8.0 °F 995.1 in WSW 24.8 mph 43.6 mph 98 % 0.3 in
04:56 8.5 °F 9.0 °F 994.1 in WSW 36.0 mph 43.9 mph 98 % 0.3 in
05:01 8.6 °F 9.0 °F 994.1 in WSW 37.5 mph 44.2 mph 98 % 0.3 in
05:06 8.7 °F 9.0 °F 994.1 in West 30.9 mph 50.0 mph 98 % 0.3 in
05:11 8.9 °F 9.0 °F 994.1 in West 50.0 mph 52.6 mph 98 % 0.3 in
05:16 8.9 °F 9.0 °F 994.1 in WSW 50.4 mph 52.6 mph 98 % 0.3 in
05:21 8.9 °F 9.0 °F 994.1 in WSW 48.6 mph 64.8 mph 98 % 0.3 in
05:26 9.4 °F 9.0 °F 993.1 in WSW 41.4 mph 64.8 mph 98 % 0.3 in
05:31 9.4 °F 9.0 °F 993.1 in WSW 50.0 mph 55.0 mph 98 % 0.3 in
05:36 9.6 °F 10.0 °F 993.1 in WSW 42.2 mph 72.4 mph 98 % 0.0 in
05:41 9.6 °F 10.0 °F 993.1 in WSW 59.4 mph 72.4 mph 98 % 0.0 in
05:46 9.6 °F 10.0 °F 993.1 in WSW 41.0 mph 59.7 mph 98 % 0.0 in
05:51 9.6 °F 10.0 °F 993.1 in WSW 36.4 mph 64.0 mph 98 % 0.0 in
05:56 9.6 °F 10.0 °F 993.1 in WSW 44.6 mph 64.0 mph 98 % 0.0 in
06:01 9.6 °F 10.0 °F 993.1 in WSW 40.4 mph 53.3 mph 98 % 0.0 in
06:06 9.6 °F 10.0 °F 993.1 in WSW 52.6 mph 52.6 mph 98 % 0.0 in
06:11 9.6 °F 10.0 °F 992.1 in West 51.8 mph 57.6 mph 98 % 0.0 in
06:16 9.6 °F 10.0 °F 992.1 in WSW 36.7 mph 60.5 mph 98 % 0.0 in
06:21 9.6 °F 10.0 °F 992.1 in West 47.9 mph 60.5 mph 98 % 0.0 in
06:26 9.6 °F 10.0 °F 993.1 in West 43.1 mph 54.7 mph 98 % 0.0 in
06:32 9.6 °F 10.0 °F 993.1 in West 49.2 mph 56.5 mph 98 % 0.0 in
06:37 9.6 °F 10.0 °F 993.1 in West 59.7 mph 59.7 mph 98 % 0.0 in
06:42 11.1 °F 10.0 °F 992.1 in WSW 48.9 mph 59.7 mph 91 % 0.0 in
06:47 11.1 °F 10.0 °F 992.1 in WSW 52.6 mph 66.3 mph 91 % 0.0 in
06:52 11.1 °F 10.0 °F 992.1 in WSW 53.6 mph 66.3 mph 91 % 0.0 in
06:57 11.1 °F 9.0 °F 992.1 in WSW 39.3 mph 64.4 mph 90 % 0.0 in
07:02 11.2 °F 10.0 °F 992.1 in WSW 51.8 mph 64.0 mph 90 % 0.0 in
07:07 11.3 °F 9.0 °F 992.1 in West 55.3 mph 64.0 mph 88 % 0.0 in
07:12 11.4 °F 9.0 °F 992.1 in WSW 53.6 mph 66.9 mph 86 % 0.0 in
07:17 11.5 °F 9.0 °F 992.1 in West 48.6 mph 66.9 mph 85 % 0.0 in
07:22 11.6 °F 9.0 °F 992.1 in WNW 39.3 mph 62.6 mph 82 % 0.0 in
07:27 11.7 °F 8.0 °F 993.1 in WSW 42.2 mph 91.4 mph 79 % 0.0 in
07:32 11.8 °F 8.0 °F 993.1 in WSW 65.8 mph 91.4 mph 76 % 0.0 in
07:37 11.8 °F 8.0 °F 993.1 in WSW 50.0 mph 83.2 mph 77 % 0.0 in
07:42 11.8 °F 8.0 °F 993.1 in West 52.9 mph 77.7 mph 76 % 0.0 in
07:47 11.8 °F 8.0 °F 993.1 in West 62.3 mph 77.7 mph 76 % 0.0 in
07:52 11.7 °F 7.0 °F 993.1 in West 66.9 mph 80.3 mph 74 % 0.0 in
07:57 11.7 °F 7.0 °F 993.1 in West 44.2 mph 80.3 mph 73 % 0.0 in
08:02 11.6 °F 7.0 °F 993.1 in West 57.6 mph 83.8 mph 73 % 0.0 in
08:07 11.5 °F 7.0 °F 993.1 in SW 43.9 mph 83.8 mph 72 % 0.0 in
08:12 11.5 °F 7.0 °F 994.1 in West 56.5 mph 78.8 mph 72 % 0.0 in
08:17 11.4 °F 7.0 °F 994.1 in West 53.6 mph 78.8 mph 72 % 0.0 in
08:22 11.2 °F 7.0 °F 994.1 in West 57.3 mph 73.9 mph 72 % 0.0 in
08:27 11.1 °F 6.0 °F 994.1 in West 57.3 mph 57.6 mph 70 % 0.0 in
08:32 11.0 °F 6.0 °F 994.1 in West 46.0 mph 64.4 mph 70 % 0.0 in
08:37 10.9 °F 6.0 °F 994.1 in West 41.0 mph 64.4 mph 71 % 0.0 in
08:42 10.8 °F 6.0 °F 995.1 in West 28.0 mph 63.4 mph 72 % 0.0 in
08:47 10.7 °F 6.0 °F 995.1 in SW 42.5 mph 55.0 mph 70 % 0.0 in
08:52 10.6 °F 6.0 °F 995.1 in West 45.7 mph 52.9 mph 70 % 0.0 in
08:57 10.6 °F 5.0 °F 996.2 in West 35.6 mph 51.8 mph 69 % 0.0 in
09:02 10.3 °F 5.0 °F 996.2 in WSW 21.2 mph 51.8 mph 68 % 0.0 in
09:07 10.2 °F 5.0 °F 996.2 in West 55.0 mph 55.0 mph 67 % 0.0 in
09:12 10.1 °F 4.0 °F 996.8 in SW 35.2 mph 56.5 mph 64 % 0.0 in
09:18 9.9 °F 3.0 °F 996.8 in West 23.3 mph 56.5 mph 63 % 0.0 in
09:23 9.9 °F 3.0 °F 996.8 in West 33.8 mph 52.1 mph 62 % 0.0 in
09:28 9.8 °F 3.0 °F 996.8 in West 24.5 mph 57.6 mph 61 % 0.0 in
09:33 9.8 °F 3.0 °F 996.8 in WNW 38.9 mph 57.6 mph 62 % 0.0 in
09:38 9.7 °F 3.0 °F 996.8 in West 28.5 mph 48.6 mph 63 % 0.0 in
09:43 9.6 °F 3.0 °F 996.8 in West 37.0 mph 48.6 mph 62 % 0.0 in
09:48 9.7 °F 3.0 °F 996.8 in WNW 37.8 mph 52.9 mph 62 % 0.0 in
09:53 9.6 °F 3.0 °F 996.8 in WSW 37.5 mph 52.9 mph 63 % 0.0 in
09:58 9.5 °F 3.0 °F 997.9 in South 25.3 mph 42.2 mph 64 % 0.0 in
10:03 9.6 °F 3.0 °F 997.9 in West 41.4 mph 48.6 mph 63 % 0.0 in
10:08 9.6 °F 3.0 °F 997.9 in West 21.6 mph 48.6 mph 64 % 0.0 in
10:13 9.6 °F 4.0 °F 998.9 in West 34.3 mph 47.1 mph 65 % 0.0 in
10:18 9.7 °F 3.0 °F 998.9 in WSW 24.5 mph 42.2 mph 64 % 0.0 in
10:23 9.7 °F 3.0 °F 998.9 in WSW 29.9 mph 40.4 mph 64 % 0.0 in
10:28 9.7 °F 4.0 °F 998.9 in West 17.7 mph 40.7 mph 65 % 0.0 in
10:33 9.7 °F 4.0 °F 998.9 in NNE 27.0 mph 40.7 mph 66 % 0.0 in
10:38 9.8 °F 4.0 °F 998.9 in NW 14.0 mph 36.0 mph 65 % 0.0 in
10:43 9.8 °F 3.0 °F 999.9 in SSW 15.8 mph 27.0 mph 64 % 0.0 in
10:48 9.8 °F 3.0 °F 999.9 in West 17.7 mph 32.3 mph 63 % 0.0 in
10:53 9.8 °F 3.0 °F 999.9 in WNW 23.3 mph 32.3 mph 62 % 0.0 in
10:58 9.8 °F 3.0 °F 999.9 in WSW 17.2 mph 38.5 mph 61 % 0.0 in
11:03 9.9 °F 3.0 °F 999.9 in WSW 20.9 mph 38.5 mph 59 % 0.0 in
11:08 9.7 °F 3.0 °F 999.9 in WNW 19.8 mph 25.6 mph 61 % 0.0 in
11:13 9.7 °F 3.0 °F 1000.9 in WNW 16.9 mph 25.6 mph 61 % 0.0 in
11:18 9.7 °F 3.0 °F 1000.9 in WSW 15.8 mph 24.8 mph 61 % 0.0 in
11:23 9.6 °F 3.0 °F 1000.9 in WNW 14.8 mph 25.9 mph 60 % 0.0 in
11:28 9.6 °F 2.0 °F 1000.9 in West 9.0 mph 33.5 mph 59 % 0.0 in
11:33 9.6 °F 2.0 °F 1000.9 in North 17.7 mph 33.5 mph 58 % 0.0 in
11:38 9.5 °F 2.0 °F 1000.9 in West 6.4 mph 32.3 mph 59 % 0.0 in
11:43 9.5 °F 2.0 °F 1000.9 in WSW 16.6 mph 29.9 mph 58 % 0.0 in
11:49 9.4 °F 2.0 °F 1000.9 in WSW 12.6 mph 37.0 mph 58 % 0.0 in
11:54 9.4 °F 1.0 °F 1000.9 in WNW 20.9 mph 37.0 mph 57 % 0.0 in
11:59 9.4 °F 2.0 °F 1000.9 in West 16.3 mph 36.0 mph 58 % 0.0 in
12:04 9.4 °F 2.0 °F 1000.9 in West 15.4 mph 36.0 mph 59 % 0.0 in
12:09 9.4 °F 2.0 °F 1000.9 in West 13.7 mph 28.0 mph 59 % 0.0 in
12:14 9.3 °F 2.0 °F 1001.9 in West 5.0 mph 27.0 mph 60 % 0.0 in
12:19 9.3 °F 2.0 °F 1001.9 in West 8.7 mph 28.5 mph 60 % 0.0 in
12:24 9.2 °F 2.0 °F 1001.9 in WNW 19.8 mph 28.5 mph 60 % 0.0 in
12:29 9.2 °F 2.0 °F 1001.9 in North 21.2 mph 23.0 mph 61 % 0.0 in
12:34 9.3 °F 2.0 °F 1001.9 in West 10.8 mph 24.8 mph 61 % 0.0 in
12:39 9.3 °F 2.0 °F 1001.9 in South 9.0 mph 32.0 mph 61 % 0.0 in
12:44 9.4 °F 2.0 °F 1001.9 in WNW 17.7 mph 32.0 mph 59 % 0.0 in
12:49 9.5 °F 2.0 °F 1001.9 in WSW 13.7 mph 36.7 mph 59 % 0.0 in
12:54 9.9 °F 3.0 °F 1001.9 in WNW 9.3 mph 36.7 mph 60 % 0.0 in
12:59 9.8 °F 2.0 °F 1001.9 in WSW 17.2 mph 28.0 mph 58 % 0.0 in
13:04 9.9 °F 2.0 °F 1001.9 in West 11.9 mph 28.5 mph 57 % 0.0 in
13:09 9.5 °F 2.0 °F 1001.9 in North 21.2 mph 28.5 mph 58 % 0.0 in
13:14 9.6 °F 3.0 °F 1001.9 in WNW 11.9 mph 26.7 mph 60 % 0.0 in
13:19 9.8 °F 3.0 °F 1001.9 in WNW 15.1 mph 24.5 mph 61 % 0.0 in
13:24 9.7 °F 2.0 °F 1001.9 in WNW 6.4 mph 24.5 mph 58 % 0.0 in
13:29 9.7 °F 3.0 °F 1001.9 in WNW 22.4 mph 24.5 mph 60 % 0.0 in
13:34 9.7 °F 3.0 °F 1001.9 in WNW 16.3 mph 24.8 mph 60 % 0.0 in
13:39 9.8 °F 2.0 °F 1001.9 in NNW 12.6 mph 25.3 mph 59 % 0.0 in
13:44 10.1 °F 3.0 °F 1001.9 in WNW 15.8 mph 25.3 mph 60 % 0.0 in
13:49 10.2 °F 3.0 °F 1001.9 in WSW 17.2 mph 23.0 mph 59 % 0.0 in
13:54 10.5 °F 3.0 °F 1001.9 in NW 11.9 mph 23.0 mph 61 % 0.0 in
13:59 10.4 °F 3.0 °F 1001.9 in West 16.9 mph 27.7 mph 59 % 0.0 in
14:05 10.6 °F 3.0 °F 1001.9 in West 10.1 mph 27.7 mph 59 % 0.0 in
14:10 10.4 °F 3.0 °F 1001.9 in West 28.5 mph 34.6 mph 58 % 0.0 in
14:15 10.2 °F 3.0 °F 1001.9 in West 28.0 mph 34.6 mph 59 % 0.0 in
14:20 10.0 °F 2.0 °F 1001.9 in West 17.2 mph 36.4 mph 58 % 0.0 in
14:25 9.9 °F 3.0 °F 1001.9 in West 14.0 mph 36.4 mph 59 % 0.0 in
14:30 9.9 °F 3.0 °F 1001.9 in NNW 20.6 mph 27.7 mph 59 % 0.0 in
14:35 9.9 °F 3.0 °F 1001.9 in West 14.0 mph 24.8 mph 59 % 0.0 in
14:40 9.9 °F 3.0 °F 1001.9 in West 9.3 mph 24.8 mph 59 % 0.0 in
14:45 9.9 °F 3.0 °F 1001.9 in WSW 17.2 mph 20.6 mph 59 % 0.0 in
14:50 9.9 °F 3.0 °F 1001.9 in West 12.6 mph 24.5 mph 59 % 0.0 in
14:55 9.9 °F 3.0 °F 1001.9 in WSW 22.4 mph 24.5 mph 59 % 0.0 in
15:00 9.9 °F 3.0 °F 1001.9 in WSW 12.6 mph 28.5 mph 59 % 0.0 in
15:05 9.9 °F 3.0 °F 1001.9 in West 11.9 mph 28.5 mph 59 % 0.0 in
15:10 9.9 °F 3.0 °F 1001.9 in West 9.3 mph 20.9 mph 59 % 0.0 in
15:15 8.9 °F 3.0 °F 1001.9 in West 9.7 mph 20.9 mph 64 % 0.0 in
15:20 8.9 °F 3.0 °F 1001.9 in West 8.7 mph 16.6 mph 64 % 0.0 in
15:25 8.9 °F 3.0 °F 1001.9 in WSW 11.9 mph 19.1 mph 64 % 0.0 in
15:30 8.9 °F 3.0 °F 1001.9 in West 24.5 mph 25.6 mph 67 % 0.0 in
15:36 8.9 °F 3.0 °F 1001.9 in West 14.0 mph 25.6 mph 67 % 0.0 in
15:41 8.7 °F 3.0 °F 1001.9 in WSW 19.5 mph 24.5 mph 67 % 0.0 in
15:46 8.7 °F 3.0 °F 1001.9 in West 14.0 mph 24.8 mph 67 % 0.0 in
15:51 8.7 °F 3.0 °F 1001.9 in WNW 9.3 mph 24.8 mph 67 % 0.0 in
15:56 8.5 °F 3.0 °F 1001.9 in WSW 20.9 mph 20.9 mph 68 % 0.0 in
16:01 8.5 °F 3.0 °F 1001.9 in West 5.8 mph 20.9 mph 68 % 0.0 in
16:06 8.5 °F 3.0 °F 1001.9 in West 14.0 mph 19.1 mph 68 % 0.0 in
16:11 8.5 °F 3.0 °F 1001.9 in West 3.2 mph 14.0 mph 68 % 0.0 in
16:16 8.5 °F 3.0 °F 1001.9 in Calm   13.7 mph 68 % 0.0 in
16:21 8.2 °F 3.0 °F 1001.9 in West 4.3 mph 11.6 mph 71 % 0.0 in
16:26 8.2 °F 3.0 °F 1001.9 in West 4.7 mph 12.2 mph 71 % 0.0 in
16:31 8.2 °F 3.0 °F 1001.9 in WSW 8.7 mph 12.2 mph 71 % 0.0 in
16:36 7.9 °F 3.0 °F 1001.9 in West 6.4 mph 12.2 mph 73 % 0.0 in
16:41 7.9 °F 3.0 °F 1001.9 in West 4.3 mph 11.9 mph 73 % 0.0 in
16:46 7.7 °F 3.0 °F 1001.9 in Calm   11.9 mph 73 % 0.0 in
16:51 7.5 °F 3.0 °F 1001.9 in West 9.3 mph 9.3 mph 74 % 0.0 in
16:56 7.3 °F 3.0 °F 1001.9 in West 6.1 mph 9.7 mph 74 % 0.0 in
17:02 7.1 °F 3.0 °F 1001.9 in Calm   9.7 mph 74 % 0.0 in
17:07 7.0 °F 3.0 °F 1001.9 in West 4.0 mph 13.7 mph 75 % 0.0 in
17:12 7.0 °F 3.0 °F 1001.9 in WSW 4.3 mph 13.7 mph 75 % 0.0 in
17:17 7.0 °F 3.0 °F 1001.9 in West 7.9 mph 10.5 mph 75 % 0.0 in
17:22 7.1 °F 3.0 °F 1001.9 in West 7.6 mph 11.6 mph 77 % 0.0 in
17:27 7.1 °F 3.0 °F 1001.9 in West 5.8 mph 11.6 mph 77 % 0.0 in
17:32 7.0 °F 3.0 °F 1001.9 in WSW 10.5 mph 11.6 mph 77 % 0.0 in
17:37 0.0 °F 3.0 °F 0.0 in Calm     0 % 0.0 in
17:42 0.0 °F 3.0 °F 1001.9 in Calm     0 % 0.0 in
17:47 0.0 °F 3.0 °F 1001.9 in WSW 7.9 mph 9.0 mph 0 % 0.0 in
17:52 6.6 °F 4.0 °F 1001.9 in West 9.0 mph 10.5 mph 80 % 0.0 in
17:57 6.6 °F 4.0 °F 1001.9 in WSW 10.5 mph 12.6 mph 81 % 0.0 in
18:02 6.6 °F 4.0 °F 1001.9 in WSW 9.3 mph 12.6 mph 82 % 0.0 in
18:08 6.5 °F 4.0 °F 1001.9 in WSW 7.9 mph 10.5 mph 83 % 0.0 in
18:12 6.5 °F 4.0 °F 1001.9 in WSW 8.7 mph 10.5 mph 83 % 0.0 in
18:18 6.5 °F 4.0 °F 1001.9 in WSW 10.1 mph 12.6 mph 83 % 0.0 in
18:23 6.5 °F 4.0 °F 1001.9 in WSW 8.7 mph 12.6 mph 83 % 0.0 in
18:28 6.5 °F 4.0 °F 1001.9 in WSW 9.7 mph 10.5 mph 83 % 0.0 in
18:33 6.5 °F 4.0 °F 1001.9 in WSW 10.1 mph 10.5 mph 83 % 0.0 in
18:38 6.6 °F 5.0 °F 1001.9 in WSW 9.3 mph 11.6 mph 85 % 0.0 in
18:43 6.7 °F 5.0 °F 1001.9 in WSW 7.9 mph 12.6 mph 86 % 0.0 in
18:48 6.8 °F 5.0 °F 1001.9 in WSW 14.0 mph 14.0 mph 86 % 0.0 in
18:58 7.0 °F 5.0 °F 1001.9 in West 10.1 mph 14.0 mph 87 % 0.0 in
19:03 7.0 °F 5.0 °F 1001.9 in WSW 12.6 mph 14.0 mph 86 % 0.0 in
19:08 7.0 °F 5.0 °F 1001.9 in WSW 10.1 mph 15.8 mph 86 % 0.0 in
19:13 7.0 °F 5.0 °F 1001.9 in West 11.6 mph 15.8 mph 86 % 0.0 in
19:18 7.0 °F 5.0 °F 1001.9 in WSW 12.6 mph 15.8 mph 86 % 0.0 in
19:23 7.0 °F 5.0 °F 1001.9 in WSW 12.2 mph 14.3 mph 86 % 0.0 in
19:28 7.0 °F 5.0 °F 1001.9 in WSW 10.1 mph 14.0 mph 86 % 0.0 in
19:33 6.6 °F 5.0 °F 1001.9 in WSW 10.5 mph 14.0 mph 87 % 0.0 in
19:38 6.5 °F 5.0 °F 1001.9 in WSW 10.1 mph 15.8 mph 87 % 0.0 in
19:43 6.4 °F 5.0 °F 1001.9 in WSW 10.5 mph 15.8 mph 87 % 0.0 in
19:48 6.3 °F 5.0 °F 1001.9 in WSW 10.1 mph 16.6 mph 88 % 0.0 in
19:53 6.4 °F 5.0 °F 1001.9 in West 16.3 mph 17.7 mph 89 % 0.0 in
19:58 6.4 °F 5.0 °F 1001.9 in WSW 9.7 mph 17.7 mph 90 % 0.0 in
20:03 6.4 °F 5.0 °F 1001.9 in WSW 6.9 mph 17.7 mph 90 % 0.0 in
20:08 6.4 °F 5.0 °F 1001.9 in West 9.7 mph 13.7 mph 90 % 0.0 in
20:13 6.4 °F 5.0 °F 1001.9 in West 20.9 mph 20.9 mph 91 % 0.0 in
20:19 6.4 °F 5.0 °F 1001.9 in WSW 11.6 mph 20.9 mph 91 % 0.0 in
20:24 6.5 °F 6.0 °F 1001.9 in West 12.2 mph 19.5 mph 91 % 0.0 in
20:29 6.5 °F 5.0 °F 1001.9 in SW 11.9 mph 19.5 mph 90 % 0.0 in
20:34 6.5 °F 5.0 °F 1001.9 in West 12.2 mph 16.9 mph 89 % 0.0 in
20:39 6.4 °F 5.0 °F 1001.9 in West 14.3 mph 16.9 mph 88 % 0.0 in
20:44 6.4 °F 5.0 °F 1002.9 in West 17.2 mph 21.2 mph 88 % 0.0 in
20:49 6.4 °F 5.0 °F 1002.9 in West 13.7 mph 21.2 mph 87 % 0.0 in
20:54 6.4 °F 5.0 °F 1002.9 in WNW 6.1 mph 19.8 mph 87 % 0.0 in
20:59 6.5 °F 5.0 °F 1002.9 in WSW 9.7 mph 19.8 mph 88 % 0.0 in
21:04 6.5 °F 5.0 °F 1002.9 in West 13.7 mph 19.8 mph 87 % 0.0 in
21:09 6.5 °F 5.0 °F 1002.9 in West 6.1 mph 19.8 mph 87 % 0.0 in
21:14 6.4 °F 5.0 °F 1002.9 in West 9.7 mph 14.0 mph 87 % 0.0 in
21:19 6.3 °F 5.0 °F 1002.9 in West 6.9 mph 13.7 mph 87 % 0.0 in
21:24 6.1 °F 4.0 °F 1002.9 in West 9.7 mph 13.7 mph 86 % 0.0 in
21:29 5.9 °F 4.0 °F 1002.9 in West 3.5 mph 10.1 mph 87 % 0.0 in
21:34 5.8 °F 4.0 °F 1002.9 in Calm   6.9 mph 87 % 0.0 in
21:39 5.8 °F 4.0 °F 1002.9 in WNW 9.3 mph 10.1 mph 87 % 0.0 in
21:45 5.8 °F 4.0 °F 1002.9 in Calm   10.1 mph 87 % 0.0 in
21:50 5.8 °F 4.0 °F 1002.9 in NNW 5.5 mph 12.2 mph 87 % 0.0 in
21:55 5.8 °F 4.0 °F 1002.9 in WNW 2.1 mph 13.0 mph 87 % 0.0 in
22:00 5.7 °F 4.0 °F 1002.9 in Calm   13.0 mph 87 % 0.0 in
22:05 5.6 °F 4.0 °F 1002.9 in Calm   10.1 mph 87 % 0.0 in
22:10 5.5 °F 4.0 °F 1002.9 in West 4.3 mph 10.1 mph 87 % 0.0 in
22:15 5.4 °F 4.0 °F 1002.9 in West 3.5 mph 10.1 mph 87 % 0.0 in
22:20 5.3 °F 4.0 °F 1002.9 in West 2.6 mph 13.0 mph 87 % 0.0 in
22:25 5.2 °F 3.0 °F 1002.9 in WNW 3.2 mph 13.0 mph 87 % 0.0 in
22:30 5.2 °F 3.0 °F 1002.9 in West 12.6 mph 12.6 mph 87 % 0.0 in
22:35 5.1 °F 3.0 °F 1002.9 in WNW 7.9 mph 12.6 mph 88 % 0.0 in
22:40 5.0 °F 3.0 °F 1002.9 in West 9.3 mph 12.2 mph 88 % 0.0 in
22:45 4.9 °F 3.0 °F 1002.9 in West 6.4 mph 12.6 mph 88 % 0.0 in
22:51 4.8 °F 3.0 °F 1002.9 in WSW 6.9 mph 12.6 mph 89 % 0.0 in
22:56 4.8 °F 3.0 °F 1002.9 in West 4.7 mph 10.5 mph 89 % 0.0 in
23:01 4.8 °F 3.0 °F 1003.9 in West 4.0 mph 13.0 mph 89 % 0.0 in
23:06 4.8 °F 3.0 °F 1003.9 in West 12.2 mph 14.8 mph 90 % 0.0 in
23:11 4.7 °F 3.0 °F 1003.9 in West 8.7 mph 14.8 mph 90 % 0.0 in
23:16 4.7 °F 3.0 °F 1003.9 in WSW 9.3 mph 11.9 mph 90 % 0.0 in
23:21 4.6 °F 3.0 °F 1003.9 in West 13.0 mph 13.0 mph 90 % 0.0 in
23:26 4.5 °F 3.0 °F 1003.9 in WSW 11.1 mph 13.0 mph 90 % 0.0 in
23:31 4.5 °F 3.0 °F 1005.0 in West 9.7 mph 13.0 mph 91 % 0.0 in
23:36 4.5 °F 3.0 °F 1005.0 in WSW 11.6 mph 13.7 mph 92 % 0.0 in
23:41 4.5 °F 3.0 °F 1005.0 in West 7.9 mph 13.7 mph 92 % 0.0 in
23:46 4.6 °F 4.0 °F 1005.0 in West 9.3 mph 13.0 mph 93 % 0.0 in
23:51 4.5 °F 4.0 °F 1005.0 in West 9.7 mph 13.0 mph 93 % 0.0 in
23:56 4.5 °F 4.0 °F 1005.0 in West 10.1 mph 13.7 mph 93 % 0.0 in
Le Gheer Warneton
Courtoisie de Weather Underground - 2.25 mb

Mise a jour : 24/02/2018 01:20:11
Généré par Cumulus 1.9.4 (1099)